This demonstration page uses our WeatherBlox Daily Observations layout. Learn more.

Left ArrowRight Arrow

39.08367, -84.50855

Hourly Observations for May 24, 2020

Temp ( °F °C ) Dew Point ( °F °C ) Humidity (%) Winds ( mph kmh ) Pressure ( in mb ) Visibility ( mi km ) Precip ( " mm )
12:53 am 00:53 Clear 68 20 66 18.9 93 93 SSW 9 15 29.99 1016 10 16.0934 0 0
1:53 am 01:53 Partly Cloudy 66 18.9 64 17.8 93 93 SW 5 7 29.98 1015 10 16.0934 0 0
2:53 am 02:53 Clear 65 18.3 64 17.8 97 97 W 3 6 29.97 1015 10 16.0934 0 0
3:53 am 03:53 Clear 65 18.3 64 17.8 97 97 Calm 29.97 1015 10 16.0934 0 0
4:09 am 04:09 Clear with Mist and Fog 63 17.2 63 17.2 100 100 Calm 29.97 1015 1.25 2.011675 0 0
4:11 am 04:11 Mostly Cloudy with Mist and Fog 63 17.2 63 17.2 100 100 Calm 29.97 1015 0.75 1.207005 0 0
4:27 am 04:27 Mostly Clear with Mist and Fog 63 17.2 63 17.2 100 100 Calm 29.97 1015 1.25 2.011675 0 0
4:32 am 04:32 Mostly Clear with Mist and Fog 63 17.2 63 17.2 100 100 Calm 29.98 1015 3 4.82802 0 0
4:35 am 04:35 Mostly Clear with Mist and Fog 63 17.2 63 17.2 100 100 Calm 29.98 1015 1.75 2.816345 0 0
4:48 am 04:48 Mostly Cloudy with Fog 63 17 63 17 100 100 Calm 29.98 1015 0.5 0.80467 0 0
4:53 am 04:53 Mostly Cloudy with Fog 62 16.7 62 16.7 100 100 Calm 29.98 1015 0.5 0.80467 0 0
5:50 am 05:50 Mostly Cloudy with Fog 63 17 63 17 100 100 Calm 29.99 1016 0.25 0.402335 0 0
5:53 am 05:53 Mostly Cloudy with Fog 62 16.7 62 16.7 100 100 Calm 29.99 1016 0.25 0.402335 0 0
6:53 am 06:53 Mostly Cloudy with Fog 62 16.7 62 16.7 100 100 Calm 30.01 1016 N/A 0 0
7:53 am 07:53 Mostly Cloudy with Fog 63 17.2 63 17.2 100 100 Calm 30.03 1017 0.25 0.402335 0 0
8:53 am 08:53 Mostly Sunny 67 19.4 67 19.4 100 100 Calm 30.04 1017 7 11.26538 0 0
9:53 am 09:53 Sunny 75 23.9 70 21.1 84 84 S 5 7 30.05 1018 10 16.0934 0 0
10:53 am 10:53 Sunny 79 26.1 71 21.7 77 77 SSE 6 9 30.04 1017 10 16.0934 0 0
11:53 am 11:53 Sunny 82 27.8 71 21.7 69 69 SSW 3 6 30.03 1017 10 16.0934 0 0
12:53 pm 12:53 Partly Cloudy 85 29.4 70 21.1 61 61 VRB 3 6 30.02 1017 10 16.0934 0 0
1:53 pm 13:53 Mostly Cloudy 85 29.4 69 20.6 59 59 S 5 7 30.01 1016 10 16.0934 0 0
2:53 pm 14:53 Mostly Cloudy 86 30 68 20 55 55 SW 5 7 30 1016 10 16.0934 0 0
3:05 pm 15:05 Sunny with Nearby Thunderstorms 86 30 68 20 55 55 VRB 3 6 29.98 1015 10 16.0934 0 0
3:27 pm 15:27 Sunny 86 30 70 21.1 59 59 S 9 15 29.97 1015 10 16.0934 0 0
3:53 pm 15:53 Mostly Cloudy 86 30 72 22.2 63 63 SSE 8 13 29.97 1015 10 16.0934 0 0
4:13 pm 16:13 Mostly Cloudy with Nearby Thunderstorms 85 29.4 68 20 57 57 SSE 3 6 29.96 1015 10 16.0934 0 0
4:45 pm 16:45 Mostly Cloudy with Thunderstorms 78 25.6 64 17.8 62 62 S 18 30 29.98 1015 10 16.0934 0 0
4:53 pm 16:53 Mostly Cloudy with Thunderstorms 75 23.9 63 17.2 66 66 S 18 30 29.99 1016 10 16.0934 0 0
5:48 pm 17:48 Cloudy with Light Rain 68 20 64 18 88 88 VRB 5 7 30 1016 8 12.87472 0.07 1.778
5:53 pm 17:53 Cloudy with Light Rain 67 19.4 64 17.8 91 91 SSW 12 19 30.01 1016 10 16.0934 0.07 1.778
6:53 pm 18:53 Mostly Sunny 70 21.1 64 17.8 82 82 SSE 12 19 29.98 1015 10 16.0934 0.01 0.254
7:53 pm 19:53 Partly Cloudy with Light Rain 68 20 65 18.3 90 90 WSW 7 11 29.99 1016 10 16.0934 0.001 0.001
8:53 pm 20:53 Partly Cloudy with Light Rain 70 21.1 64 17.8 82 82 S 12 19 30.01 1016 10 16.0934 0.001 0.001
11:53 pm 23:53 Partly Cloudy 67 19.4 66 18.9 97 97 Calm 30.01 1016 10 16.0934 0 0

Powered by AerisWeather